STARLINK-1377 (45547 NORAD) Tracking and Keplerian Element Data

This shows tracking and keplerian element data for the satellite.

Feedback or suggestion? Click here.




ElementValue
Catalog45547
NameSTARLINK-1377
Epoch Orbit175
Epoch Day188.91667824
Epoch Year2020
RAAN47.1649
Inclination52.999
Eccentricity0.0001657
Argument of Perigee78.3596
Mean Anonmoly170.463
Mean Motion15.05601491
Decay Rate-2.051E-05
L11 45547U 20025S 20188.91667824 -.00002051 00000-0 -12156-3 0 9994
L22 45547 52.9990 47.1649 0001657 78.3596 170.4630 15.05601491 1755

Live tracking and technical data element details for STARLINK-1377 (NORAD 45547). STARLINK-1377 can be tracked NOW for your location showing map with azimuth and elevation plus other details from your city location.

Track the satellite on the map from your city or location and see movement details for azimuth, elevation, latitude, longitude, range, height, and movement on the map or in text.







IsCatalogInMostPopularTable: catalog: 45547, numindb: 16
Update: records affected: 1



GetName: 45547 STARLINK-1377

Hit Count: updated at: Wed, 08 Jul 2020 05:17:39 GMT